sat.trackr.live / text

‹ back to catalog

STARLINK-5129

NORAD 54004 · 2022-125AS

PAYLOAD ACTIVE UNKNOWN

§ Identity

Operator
Country
US
Launch date
2022-10-05
Launch site
AFWTR
Launch vehicle
Mass (kg)
RCS (m²)

Purposes: comms

External: N2YO · Heavens-Above · Gunter

§ Orbital elements

Epoch: 2026-09-20T22:00:03.000096Z

Period
94.39 min
Inclination
53.1586°
Eccentricity
0.0002159
Mean motion
15.25584354 rev/d
Perigee alt
487.5 km
Apogee alt
490.5 km
Semi-major
6,867.2 km
B*
2.9094e-3
RAAN
56.0732°
Arg perigee
86.1786°
Mean anomaly
110.3813°
Rev number
575

§ Raw data

STARLINK-51291 54004U 22125AS  26263.91670139  .00075278  00000+0  29094-2 0  99942 54004  53.1586  56.0732 0002159  86.1786 110.3813 15.25584354  5755

JSON: /api/v1/satellites/54004 · /tle

For live sub-satellite position, see the globe view (requires WebGL).

§ Visibility from observer

Set your observer location to see the next 7 days of passes ≥ 10°. The values pass through the URL so the page stays shareable.

No JS? Fill the form by hand. The geolocation button needs JavaScript.